N1CTF-6 Weather Reports


Display with metric or nautical units.
time (UTC)temp
F
wind
direction
speed
MPH
gust
MPH
rain 1hr
in
rain 24hr
in
rain mn
in
humidity
%
barometer
mb
20260510231439 62 357 2.0 2.0 0.00 0.00 0.00 40 1017.2
20260510230439 62 8 2.0 2.0 0.00 0.00 0.00 40 1017.1
20260510225439 62 114 2.0 2.0 0.00 0.00 0.00 41 1017.1
20260510224439 62 46 2.0 3.0 0.00 0.00 0.00 39 1016.9
20260510223439 63 44 2.0 3.0 0.00 0.00 0.00 40 1017.0
20260510222439 62 68 2.0 2.0 0.00 0.00 0.00 41 1017.4
20260510221439 61 55 1.0 4.0 0.00 0.00 0.00 40 1017.3
20260510220439 62 347 2.0 2.0 0.00 0.00 0.00 39 1017.4
20260510215439 63 29 4.0 4.0 0.00 0.00 0.00 38 1017.0
20260510214439 63 50 1.0 2.0 0.00 0.00 0.00 39 1016.8
20260510213439 63 68 2.0 2.0 0.00 0.00 0.00 38 1016.6
20260510212440 63 1 2.0 4.0 0.00 0.00 0.00 39 1016.2
20260510211443 62 347 3.0 3.0 0.00 0.00 0.00 38 1016.1
20260510210439 64 68 1.0 3.0 0.00 0.00 0.00 39 1016.3
20260510205439 62 16 7.0 7.0 0.00 0.00 0.00 38 1016.4
20260510204439 61 28 2.0 2.0 0.00 0.00 0.00 41 1016.4
20260510203439 62 64 1.0 2.0 0.00 0.00 0.00 38 1016.4
20260510202439 63 342 2.0 4.0 0.00 0.00 0.00 39 1016.3
20260510201439 64 76 3.0 3.0 0.00 0.00 0.00 37 1016.4
20260510200439 65 96 2.0 3.0 0.00 0.00 0.00 36 1016.3
20260510195439 64 3 2.0 6.0 0.00 0.00 0.00 37 1016.5
20260510194440 64 31 3.0 3.0 0.00 0.00 0.00 36 1016.6
20260510193439 64 145 0.0 4.0 0.00 0.00 0.00 38 1016.4
20260510192439 63 30 0.0 2.0 0.00 0.00 0.00 38 1016.8
20260510191440 64 14 0.0 2.0 0.00 0.00 0.00 38 1016.6
20260510190439 65 72 4.0 5.0 0.00 0.00 0.00 37 1016.4
20260510185439 64 166 2.0 3.0 0.00 0.00 0.00 35 1016.3
20260510184439 64 75 4.0 4.0 0.00 0.00 0.00 39 1016.4
20260510183439 64 34 5.0 6.0 0.00 0.00 0.00 36 1016.2
20260510182439 64 11 2.0 3.0 0.00 0.00 0.00 37 1016.6
20260510181439 65 336 2.0 5.0 0.00 0.00 0.00 37 1016.1
20260510180440 64 272 2.0 4.0 0.00 0.00 0.00 36 1016.2
20260510175439 64 31 5.0 5.0 0.00 0.00 0.00 37 1016.3
20260510174439 63 99 2.0 3.0 0.00 0.00 0.00 37 1015.9
20260510173439 63 8 3.0 4.0 0.00 0.00 0.00 39 1015.9
20260510172439 64 25 5.0 7.0 0.00 0.00 0.00 38 1016.0
20260510171439 64 323 3.0 4.0 0.00 0.00 0.00 38 1015.8
20260510170439 63 89 3.0 4.0 0.00 0.00 0.00 38 1015.9
20260510165439 64 27 3.0 5.0 0.00 0.00 0.00 39 1015.6
20260510164439 63 11 2.0 4.0 0.00 0.00 0.00 40 1016.1
20260510163439 64 181 2.0 3.0 0.00 0.00 0.00 41 1016.0
20260510162439 63 5 3.0 4.0 0.00 0.00 0.00 39 1015.9
20260510161440 63 7 4.0 8.0 0.00 0.00 0.00 36 1016.1
20260510160439 64 34 2.0 2.0 0.00 0.00 0.00 35 1016.1
20260510155440 63 180 1.0 2.0 0.00 0.00 0.00 41 1016.0
20260510154439 61 35 2.0 3.0 0.00 0.00 0.00 41 1015.9
20260510153439 61 2 0.0 2.0 0.00 0.00 0.00 41 1015.6
20260510152439 61 28 3.0 5.0 0.00 0.00 0.00 41 1015.6
20260510151439 61 67 2.0 4.0 0.00 0.00 0.00 42 1015.6
20260510150440 60 120 2.0 2.0 0.00 0.00 0.00 43 1015.6
20260510145439 61 56 2.0 3.0 0.00 0.00 0.00 43 1015.5
20260510144439 60 104 1.0 3.0 0.00 0.00 0.00 48 1015.3
20260510143439 58 80 2.0 2.0 0.00 0.00 0.00 46 1015.3
20260510142439 59 304 0.0 2.0 0.00 0.00 0.00 44 1015.1
20260510141439 58 50 4.0 4.0 0.00 0.00 0.00 47 1015.1
20260510140439 58 41 2.0 3.0 0.00 0.00 0.00 46 1014.8
20260510135439 56 44 3.0 3.0 0.00 0.00 0.00 49 1015.1
20260510134439 56 53 2.0 4.0 0.00 0.00 0.00 50 1014.8
20260510133439 57 353 3.0 5.0 0.00 0.00 0.00 47 1014.8
20260510132439 55 68 2.0 3.0 0.00 0.00 0.00 53 1014.8
20260510131439 53 16 2.0 3.0 0.00 0.00 0.00 55 1014.8
20260510130439 54 60 3.0 5.0 0.00 0.00 0.00 55 1014.5
20260510125440 54 60 4.0 4.0 0.00 0.00 0.00 57 1014.7
20260510124439 54 235 3.0 3.0 0.00 0.00 0.00 59 1014.6
20260510123439 53 78 2.0 3.0 0.00 0.00 0.00 60 1014.6
20260510122439 53 76 1.0 2.0 0.00 0.00 0.00 63 1014.4
20260510121440 53 146 1.0 2.0 0.00 0.00 0.00 64 1014.1
20260510120439 53 86 2.0 3.0 0.00 0.00 0.00 64 1013.9
20260510115439 53 20 3.0 3.0 0.00 0.00 0.00 64 1013.7
20260510114439 53 89 2.0 2.0 0.00 0.00 0.00 64 1013.9
20260510113439 53 23 0.0 3.0 0.00 0.00 0.00 64 1013.7
20260510112440 53 50 2.0 3.0 0.00 0.00 0.00 65 1013.6
20260510111439 53 65 1.0 5.0 0.00 0.00 0.00 64 1013.4
20260510110439 53 79 1.0 2.0 0.00 0.00 0.00 64 1013.2
20260510105439 54 18 2.0 4.0 0.00 0.00 0.00 65 1012.6
20260510104439 54 32 2.0 3.0 0.00 0.00 0.00 65 1012.7
20260510103439 54 316 3.0 4.0 0.00 0.00 0.00 66 1012.7
20260510102439 54 49 2.0 4.0 0.00 0.00 0.00 64 1012.3
20260510101439 55 31 3.0 3.0 0.00 0.00 0.00 63 1012.3
20260510100439 55 26 1.0 3.0 0.00 0.00 0.00 63 1012.0
20260510095439 55 111 3.0 3.0 0.00 0.00 0.00 63 1011.5
20260510094439 55 1 3.0 3.0 0.00 0.00 0.00 64 1011.7
20260510093439 55 9 3.0 4.0 0.00 0.00 0.00 65 1011.1
20260510092439 56 12 4.0 5.0 0.00 0.00 0.00 65 1011.2
20260510091439 56 64 4.0 7.0 0.00 0.00 0.00 65 1010.9
20260510090439 57 25 3.0 4.0 0.00 0.00 0.00 65 1010.6
20260510085439 57 220 0.0 3.0 0.00 0.00 0.00 65 1010.2
20260510084439 57 19 2.0 3.0 0.00 0.00 0.00 65 1010.2
20260510083439 58 68 3.0 4.0 0.00 0.00 0.00 65 1009.9
20260510082439 58 35 3.0 4.0 0.00 0.00 0.00 65 1009.5
20260510081439 58 6 4.0 4.0 0.00 0.00 0.00 67 1009.4
20260510080439 59 20 3.0 6.0 0.00 0.00 0.00 68 1009.4
20260510075439 59 57 2.0 2.0 0.00 0.00 0.00 69 1009.2
20260510074439 58 29 5.0 5.0 0.00 0.00 0.00 70 1009.4
20260510073439 59 33 2.0 5.0 0.00 0.00 0.00 70 1009.4
20260510072439 59 30 3.0 3.0 0.00 0.00 0.00 68 1009.5
20260510071439 59 235 0.0 2.0 0.00 0.00 0.00 67 1009.8
20260510070439 60 46 3.0 3.0 0.00 0.00 0.00 66 1009.2
20260510065439 60 52 3.0 3.0 0.00 0.00 0.00 65 1009.3
20260510064439 60 103 1.0 2.0 0.00 0.00 0.00 64 1009.3
20260510063439 60 252 0.0 2.0 0.00 0.00 0.00 64 1009.3
20260510062439 60 54 3.0 3.0 0.00 0.00 0.00 65 1009.2
20260510061439 60 89 2.0 2.0 0.00 0.00 0.00 64 1009.0
20260510060439 61 328 0.0 2.0 0.00 0.00 0.00 65 1009.3
20260510055439 62 210 0.0 5.0 0.00 0.00 0.00 66 1009.1
20260510054439 62 162 0.0 3.0 0.00 0.00 0.00 67 1009.1
20260510053439 62 211 3.0 5.0 0.00 0.00 0.00 67 1009.3
20260510052439 62 58 2.0 4.0 0.00 0.00 0.00 68 1009.3
20260510051439 62 168 0.0 3.0 0.00 0.00 0.00 67 1009.0
20260510050439 61 174 0.0 2.0 0.00 0.00 0.00 68 1008.6
20260510045439 61 124 0.0 1.0 0.00 0.00 0.00 70 1008.7
20260510044439 62 110 0.0 2.0 0.00 0.00 0.00 69 1008.8
20260510043439 62 43 2.0 2.0 0.00 0.00 0.00 66 1008.6
20260510042439 62 24 2.0 2.0 0.00 0.00 0.00 64 1008.5
20260510041439 62 167 0.0 2.0 0.00 0.00 0.00 65 1008.2
20260510040439 63 217 0.0 2.0 0.00 0.00 0.00 62 1008.3
20260510035439 63 106 1.0 1.0 0.00 0.00 0.20 62 1008.0
20260510034439 63 80 0.0 1.0 0.00 0.00 0.20 63 1007.9
20260510033439 63 82 1.0 3.0 0.00 0.00 0.20 61 1007.8
20260510032440 63 209 0.0 2.0 0.00 0.00 0.20 62 1007.7
20260510031439 63 158 2.0 3.0 0.00 0.00 0.20 63 1007.8
20260510030439 62 106 2.0 2.0 0.00 0.00 0.20 64 1007.7
20260510025439 62 137 2.0 2.0 0.00 0.00 0.20 67 1008.0
20260510024440 62 69 1.0 1.0 0.00 0.00 0.20 66 1008.0
20260510023439 62 98 1.0 1.0 0.00 0.00 0.20 66 1007.7
20260510022439 62 86 1.0 2.0 0.00 0.00 0.20 67 1007.7
20260510021439 62 121 2.0 2.0 0.00 0.00 0.20 65 1007.5
20260510020439 63 113 1.0 2.0 0.00 0.00 0.20 64 1007.4
20260510015439 62 129 0.0 0.0 0.00 0.00 0.20 65 1007.1
20260510014440 63 81 0.0 1.0 0.00 0.00 0.20 63 1007.1
20260510013439 63 114 0.0 0.0 0.00 0.00 0.20 64 1006.7
20260510012439 64 47 2.0 2.0 0.00 0.00 0.20 63 1006.7
20260510011439 64 57 2.0 2.0 0.00 0.00 0.20 61 1006.5
20260510010439 66 86 1.0 1.0 0.00 0.00 0.20 59 1006.4
20260510005439 66 72 2.0 2.0 0.00 0.00 0.20 56 1006.4
20260510004444 67 132 2.0 2.0 0.00 0.00 0.20 55 1006.2
20260510003439 67 206 1.0 2.0 0.00 0.00 0.20 54 1006.2
20260510002439 67 204 2.0 2.0 0.00 0.00 0.20 54 1006.1
20260510001439 68 262 1.0 3.0 0.00 0.00 0.20 53 1005.9
20260510000440 68 39 2.0 3.0 0.00 0.00 0.20 52 1005.6
20260509235439 69 214 3.0 7.0 0.00 0.00 0.20 50 1005.3
20260509234444 69 161 1.0 2.0 0.00 0.00 0.20 49 1005.2
20260509233439 69 205 4.0 6.0 0.00 0.00 0.20 49 1005.3
20260509232439 69 259 0.0 3.0 0.00 0.00 0.20 48 1005.2